Regional Weather Roundup
Issued by NWS Little Rock, AR

Home | Current Version | Previous Version | Text Only | Print | Product List | Glossary Off
Versions: 1 2 3 4 5 6 7 8 9 10 11 12 13 14 15 16 17 18 19 20 21 22 23 24 25 26 27 28 29 30 31 32

000
ASUS44 KLZK 060605
RWRLZK

WEATHER ROUNDUP FOR ARKANSAS
NATIONAL WEATHER SERVICE LITTLE ROCK AR
1200 AM CST TUE DEC 06 2016

NOTE: "FAIR" INDICATES FEW OR NO CLOUDS BELOW 12,000 FEET WITH NO
SIGNIFICANT WEATHER AND/OR OBSTRUCTIONS TO VISIBILITY.

ARZ001-003-010-029-060700-
NORTHWEST ARKANSAS

CITY           SKY/WX    TMP DP  RH WIND       PRES   REMARKS
FAYETTEVILLE   RAIN      44  44 100 CALM      29.72S
6HR MIN TEMP:  43; 6HR MAX TEMP:  47; 6HR PCP:  0.07;

FORT SMITH     LGT RAIN  45  43  93 E3        29.74S
6HR MIN TEMP:  45; 6HR MAX TEMP:  48; 6HR PCP:  0.28;

HARRISON       LGT RAIN  40  39  97 E5        29.73S
6HR MIN TEMP:  39; 6HR MAX TEMP:  42; 6HR PCP:  0.20;

BENTONVILLE    CLOUDY    43  36  75 CALM      29.72F
6HR MIN TEMP:  43; 6HR MAX TEMP:  46;

ROGERS         CLOUDY    43  39  86 E3        29.72F
6HR MIN TEMP:  43; 6HR MAX TEMP:  46;

SILOAM SPGS    CLOUDY    43  37  81 N6        29.72S
6HR MIN TEMP:  43; 6HR MAX TEMP:  46;

HIGHFILL       CLOUDY    43  40  89 CALM      29.72S
6HR MIN TEMP:  42; 6HR MAX TEMP:  48;

$$

ARZ004-005-016-060700-
NORTH CENTRAL ARKANSAS

CITY           SKY/WX    TMP DP  RH WIND       PRES   REMARKS
BATESVILLE     CLOUDY    41  39  93 N3        29.73F
6HR MIN TEMP:  41; 6HR MAX TEMP:  43; 6HR PCP:  0.17;

FLIPPIN        CLOUDY    41  36  81 CALM      29.72F
6HR MIN TEMP:  41; 6HR MAX TEMP:  43; 6HR PCP:  0.10;

MTN HOME       LGT RAIN  40  39  97 E3        29.73F FOG
6HR MIN TEMP:  40; 6HR MAX TEMP:  41; 6HR PCP:  0.13;

$$

ARZ040-041-060700-
WEST CENTRAL ARKANSAS

CITY           SKY/WX    TMP DP  RH WIND       PRES   REMARKS
MENA           CLOUDY    46  45  93 NW3       29.72S
MOUNT IDA      CLOUDY    45  44  97 CALM      29.68S
6HR MIN TEMP:  45; 6HR MAX TEMP:  47; 6HR PCP:  0.03;

$$

ARZ009-017-025-026-028-060700-
NORTHEAST ARKANSAS

CITY           SKY/WX    TMP DP  RH WIND       PRES   REMARKS
CORNING        LGT RAIN  41  41 100 N8        29.75F
JONESBORO      RAIN      42  41  96 NE8       29.72F FOG
6HR MIN TEMP:  42; 6HR MAX TEMP:  44; 6HR PCP:  0.03;

NEWPORT        LGT RAIN  42  41  96 MISG      29.71
6HR MIN TEMP:  41; 6HR MAX TEMP:  43;

WALNUT RIDGE   CLOUDY    41  37  87 N9        29.73F
6HR MIN TEMP:  41; 6HR MAX TEMP:  43; 6HR PCP:  0.02;

BLYTHEVILLE    LGT RAIN  45  42  89 NE5       29.73F
6HR MIN TEMP:  44; 6HR MAX TEMP:  45; 6HR PCP:  0.04;

$$

ARZ022-023-033-042-044-060700-
CENTRAL ARKANSAS

CITY           SKY/WX    TMP DP  RH WIND       PRES   REMARKS
LITTLE ROCK    CLOUDY    43  43 100 N3        29.71F
6HR MIN TEMP:  42; 6HR MAX TEMP:  43; 6HR PCP:  0.18;

JACKSONVILLE   CLOUDY    44  43  99 N5        29.70S
6HR MIN TEMP:  43; 6HR MAX TEMP:  44; 6HR PCP:  0.18;

SEARCY         CLOUDY    44  43  96 NE6       29.72R
6HR MIN TEMP:  43; 6HR MAX TEMP:  44; 6HR PCP:  0.05;

HOT SPRINGS    RAIN      45  44  97 E7        29.69F FOG
6HR MIN TEMP:  45; 6HR MAX TEMP:  46; 6HR PCP:  0.04;

RUSSELLVILLE   CLOUDY    44  42  93 N3        29.72F
6HR MIN TEMP:  43; 6HR MAX TEMP:  44; 6HR PCP:  0.07;

CLINTON        CLOUDY    43  41  93 CALM      29.72F FOG
$$

ARZ036-060700-
EAST ARKANSAS

CITY           SKY/WX    TMP DP  RH WIND       PRES   REMARKS
WEST MEMPHIS   LGT RAIN  46  45  96 NE7       29.68F FOG
6HR MIN TEMP:  46; 6HR MAX TEMP:  47; 6HR PCP:  0.04;

$$

ARZ050-053-066-070-073-060700-
SOUTHWEST ARKANSAS

CITY           SKY/WX    TMP DP  RH WIND       PRES   REMARKS
ARKADELPHIA    LGT RAIN  45  44  97 NE7       29.71F
6HR MIN TEMP:  45; 6HR MAX TEMP:  45; 6HR PCP:  0.10;

CAMDEN         LGT RAIN  45  43  93 W5        29.69R
TEXARKANA      LGT RAIN  46  45  96 W7        29.74R
6HR MIN TEMP:  45; 6HR MAX TEMP:  46; 6HR PCP:  0.12;

EL DORADO      RAIN      46  46 100 SW3       29.69R FOG
6HR MIN TEMP:  46; 6HR MAX TEMP:  47; 6HR PCP:  0.36;

DE QUEEN       CLOUDY    46  46 100 CALM      29.72S FOG
6HR MIN TEMP:  46; 6HR MAX TEMP:  49; 6HR PCP: TRACE;

$$

ARZ056-057-069-060700-
SOUTHEAST ARKANSAS

CITY           SKY/WX    TMP DP  RH WIND       PRES   REMARKS
PINE BLUFF     LGT RAIN  45  44  97 N6        29.70R FOG
6HR MIN TEMP:  45; 6HR MAX TEMP:  46; 6HR PCP:  0.05;

STUTTGART      CLOUDY    45  39  81 NE10      29.67F
6HR MIN TEMP:  45; 6HR MAX TEMP:  45; 6HR PCP:  0.11;

MONTICELLO     LGT RAIN  46  45  93 NW6       29.67F
6HR MIN TEMP:  47; 6HR MAX TEMP:  47; 6HR PCP:  0.13;


$$






USA.gov is the U.S. government's official web portal to all federal, state and local government web resources and services.